,,PressureMeas_1m,,PRMeasQMR101_1,,RHStat155_1m_1,,SRMeasQMS101R_1m,,TAStat155_1m_1,,GenWind_1,,GenWind_1,
2019-03-18, 00:00:06,VALID,920.363,VALID,0.0,VALID,87.988,VALID,-0.004,VALID,19.968,VALID,48.0,VALID,1.539,
2019-03-18, 00:01:06,VALID,920.379,VALID,0.0,VALID,87.684,VALID,0.005,VALID,20.03,VALID,47.0,VALID,1.559,
2019-03-18, 00:02:06,VALID,920.383,VALID,0.0,VALID,87.43,VALID,0.004,VALID,20.127,VALID,47.0,VALID,1.171,
2019-03-18, 00:03:06,VALID,920.365,VALID,0.0,VALID,87.153,VALID,-0.001,VALID,20.194,VALID,47.0,VALID,1.31,
2019-03-18, 00:04:06,VALID,920.37,VALID,0.0,VALID,86.845,VALID,-0.001,VALID,20.311,VALID,47.0,VALID,1.58,
2019-03-18, 00:05:06,VALID,920.359,VALID,0.0,VALID,86.253,VALID,-0.016,VALID,20.443,VALID,48.0,VALID,1.638,
2019-03-18, 00:06:06,VALID,920.341,VALID,0.0,VALID,85.668,VALID,-0.012,VALID,20.476,VALID,50.0,VALID,1.639,
2019-03-18, 00:07:06,VALID,920.315,VALID,0.0,VALID,85.648,VALID,-0.006,VALID,20.394,VALID,50.0,VALID,1.657,
2019-03-18, 00:08:06,VALID,920.312,VALID,0.0,VALID,86.06,VALID,0.005,VALID,20.237,VALID,49.0,VALID,1.621,
2019-03-18, 00:09:06,VALID,920.283,VALID,0.0,VALID,86.347,VALID,-0.006,VALID,20.085,VALID,50.0,VALID,1.501,
2019-03-18, 00:10:06,VALID,920.262,VALID,0.0,VALID,87.44,VALID,0.003,VALID,19.961,VALID,48.0,VALID,1.592,
2019-03-18, 00:11:06,VALID,920.28,VALID,0.0,VALID,88.248,VALID,-0.003,VALID,19.942,VALID,47.0,VALID,1.702,
2019-03-18, 00:12:06,VALID,920.269,VALID,0.0,VALID,88.236,VALID,-0.006,VALID,20.042,VALID,48.0,VALID,1.696,
2019-03-18, 00:13:06,VALID,920.276,VALID,0.0,VALID,87.607,VALID,0.008,VALID,20.276,VALID,48.0,VALID,1.762,
2019-03-18, 00:14:06,VALID,920.245,VALID,0.0,VALID,86.563,VALID,-0.035,VALID,20.443,VALID,48.0,VALID,1.846,
2019-03-18, 00:15:06,VALID,920.244,VALID,0.0,VALID,86.122,VALID,-0.03,VALID,20.571,VALID,47.0,VALID,1.661,
2019-03-18, 00:16:06,VALID,920.245,VALID,0.0,VALID,85.601,VALID,-0.05,VALID,20.675,VALID,47.0,VALID,1.532,
2019-03-18, 00:17:06,VALID,920.234,VALID,0.0,VALID,85.218,VALID,-0.03,VALID,20.748,VALID,48.0,VALID,1.569,
2019-03-18, 00:18:06,VALID,920.236,VALID,0.0,VALID,84.895,VALID,-0.048,VALID,20.782,VALID,48.0,VALID,1.399,
2019-03-18, 00:19:06,VALID,920.191,VALID,0.0,VALID,84.727,VALID,-0.053,VALID,20.843,VALID,48.0,VALID,1.222,
2019-03-18, 00:20:06,VALID,920.172,VALID,0.0,VALID,84.158,VALID,-0.059,VALID,20.72,VALID,52.0,VALID,1.423,
2019-03-18, 00:21:06,VALID,920.155,VALID,0.0,VALID,85.361,VALID,-0.048,VALID,20.551,VALID,50.0,VALID,1.491,
2019-03-18, 00:22:06,VALID,920.125,VALID,0.0,VALID,85.324,VALID,-0.065,VALID,20.661,VALID,48.0,VALID,1.356,
2019-03-18, 00:23:06,VALID,920.116,VALID,0.0,VALID,85.123,VALID,-0.059,VALID,20.656,VALID,48.0,VALID,1.154,
2019-03-18, 00:24:06,VALID,920.085,VALID,0.0,VALID,85.431,VALID,-0.05,VALID,20.606,VALID,49.0,VALID,1.043,
2019-03-18, 00:25:06,VALID,920.059,VALID,0.0,VALID,85.196,VALID,-0.047,VALID,20.445,VALID,51.0,VALID,1.203,
2019-03-18, 00:26:06,VALID,920.039,VALID,0.0,VALID,85.911,VALID,-0.045,VALID,20.267,VALID,51.0,VALID,1.21,
2019-03-18, 00:27:06,VALID,920.031,VALID,0.0,VALID,86.8,VALID,-0.04,VALID,20.153,VALID,49.0,VALID,1.261,
2019-03-18, 00:28:06,VALID,920.019,VALID,0.0,VALID,87.463,VALID,-0.033,VALID,20.104,VALID,47.0,VALID,1.143,
2019-03-18, 00:29:06,VALID,920.022,VALID,0.0,VALID,88.094,VALID,-0.015,VALID,20.19,VALID,47.0,VALID,1.113,
2019-03-18, 00:30:06,VALID,920.0,VALID,0.0,VALID,87.432,VALID,-0.023,VALID,20.438,VALID,48.0,VALID,1.066,
2019-03-18, 00:31:06,VALID,920.002,VALID,0.0,VALID,86.261,VALID,-0.007,VALID,20.56,VALID,53.0,VALID,1.265,
2019-03-18, 00:32:06,VALID,920.006,VALID,0.0,VALID,86.035,VALID,-0.011,VALID,20.4,VALID,51.0,VALID,1.555,
2019-03-18, 00:33:06,VALID,920.014,VALID,0.0,VALID,86.618,VALID,-0.011,VALID,20.158,VALID,52.0,VALID,1.78,
2019-03-18, 00:34:06,VALID,920.005,VALID,0.0,VALID,87.723,VALID,-0.022,VALID,19.992,VALID,50.0,VALID,1.64,
2019-03-18, 00:35:06,VALID,919.993,VALID,0.0,VALID,88.008,VALID,-0.022,VALID,20.013,VALID,52.0,VALID,1.783,
2019-03-18, 00:36:06,VALID,920.005,VALID,0.0,VALID,88.209,VALID,-0.023,VALID,20.005,VALID,52.0,VALID,1.788,
2019-03-18, 00:37:06,VALID,919.99,VALID,0.0,VALID,87.597,VALID,-0.031,VALID,19.933,VALID,51.0,VALID,1.619,
2019-03-18, 00:38:06,VALID,919.967,VALID,0.0,VALID,88.005,VALID,-0.028,VALID,19.793,VALID,54.0,VALID,1.675,
2019-03-18, 00:39:06,VALID,919.969,VALID,0.0,VALID,89.257,VALID,-0.033,VALID,19.898,VALID,55.0,VALID,1.521,
2019-03-18, 00:40:06,VALID,919.925,VALID,0.0,VALID,88.346,VALID,-0.015,VALID,19.967,VALID,53.0,VALID,1.457,
2019-03-18, 00:41:06,VALID,919.929,VALID,0.0,VALID,88.109,VALID,-0.009,VALID,19.873,VALID,52.0,VALID,1.269,
2019-03-18, 00:42:06,VALID,919.914,VALID,0.0,VALID,89.044,VALID,-0.039,VALID,19.756,VALID,61.0,VALID,1.38,
2019-03-18, 00:43:06,VALID,919.874,VALID,0.0,VALID,89.335,VALID,-0.026,VALID,19.672,VALID,54.0,VALID,1.175,
2019-03-18, 00:44:06,VALID,919.857,VALID,0.0,VALID,89.943,VALID,-0.009,VALID,19.628,VALID,56.0,VALID,1.23,
2019-03-18, 00:45:06,VALID,919.846,VALID,0.0,VALID,90.465,VALID,0.015,VALID,19.717,VALID,59.0,VALID,1.056,
2019-03-18, 00:46:06,VALID,919.837,VALID,0.0,VALID,89.482,VALID,0.012,VALID,19.736,VALID,68.0,VALID,0.662,
2019-03-18, 00:47:06,VALID,919.823,VALID,0.0,VALID,88.756,VALID,-0.001,VALID,19.651,VALID,66.0,VALID,0.803,
2019-03-18, 00:48:06,VALID,919.841,VALID,0.0,VALID,89.91,VALID,0.003,VALID,19.535,VALID,57.0,VALID,1.16,
2019-03-18, 00:49:06,VALID,919.854,VALID,0.0,VALID,90.513,VALID,0.022,VALID,19.447,VALID,55.0,VALID,1.104,
2019-03-18, 00:50:06,VALID,919.872,VALID,0.0,VALID,90.941,VALID,0.022,VALID,19.441,VALID,59.0,VALID,1.269,
2019-03-18, 00:51:06,VALID,919.889,VALID,0.0,VALID,90.794,VALID,0.007,VALID,19.478,VALID,57.0,VALID,1.447,
2019-03-18, 00:52:06,VALID,919.87,VALID,0.0,VALID,90.61,VALID,0.009,VALID,19.538,VALID,56.0,VALID,1.349,
2019-03-18, 00:53:06,VALID,919.853,VALID,0.0,VALID,90.665,VALID,0.013,VALID,19.609,VALID,64.0,VALID,1.091,
2019-03-18, 00:54:06,VALID,919.821,VALID,0.0,VALID,89.585,VALID,-0.006,VALID,19.653,VALID,68.0,VALID,0.3,
2019-03-18, 00:55:06,VALID,919.811,VALID,0.0,VALID,89.063,VALID,0.01,VALID,19.634,INVALID,360.0,VALID,0.0,
2019-03-18, 00:56:06,VALID,919.795,VALID,0.0,VALID,89.412,VALID,0.024,VALID,19.553,VALID,50.0,VALID,0.0,
2019-03-18, 00:57:06,VALID,919.798,VALID,0.0,VALID,90.204,VALID,0.018,VALID,19.527,INVALID,360.0,VALID,0.0,
2019-03-18, 00:58:06,VALID,919.78,VALID,0.0,VALID,90.703,VALID,0.014,VALID,19.551,INVALID,360.0,VALID,0.0,
2019-03-18, 00:59:06,VALID,919.777,VALID,0.0,VALID,90.453,VALID,0.006,VALID,19.54,INVALID,360.0,VALID,0.0,
2019-03-18, 01:00:06,VALID,919.779,VALID,0.0,VALID,90.914,VALID,0.003,VALID,19.544,INVALID,360.0,VALID,0.0,
2019-03-18, 01:01:06,VALID,919.748,VALID,0.0,VALID,90.946,VALID,0.017,VALID,19.551,INVALID,360.0,VALID,0.189,
2019-03-18, 01:02:06,VALID,919.764,VALID,0.0,VALID,90.51,VALID,-0.002,VALID,19.555,VALID,68.0,VALID,1.174,
2019-03-18, 01:03:06,VALID,919.773,VALID,0.0,VALID,91.067,VALID,0.003,VALID,19.621,VALID,64.0,VALID,1.463,
2019-03-18, 01:04:06,VALID,919.785,VALID,0.0,VALID,90.538,VALID,0.007,VALID,19.706,VALID,62.0,VALID,1.225,
2019-03-18, 01:05:06,VALID,919.781,VALID,0.0,VALID,89.36,VALID,-0.007,VALID,19.657,VALID,57.0,VALID,0.968,
2019-03-18, 01:06:06,VALID,919.786,VALID,0.0,VALID,89.724,VALID,-0.005,VALID,19.528,VALID,62.0,VALID,0.925,
2019-03-18, 01:07:06,VALID,919.766,VALID,0.0,VALID,90.573,VALID,0.008,VALID,19.485,VALID,69.0,VALID,0.659,
2019-03-18, 01:08:06,VALID,919.769,VALID,0.0,VALID,90.855,VALID,-0.002,VALID,19.499,VALID,70.0,VALID,0.609,
2019-03-18, 01:09:06,VALID,919.747,VALID,0.0,VALID,91.208,VALID,0.002,VALID,19.565,VALID,70.0,VALID,0.839,
2019-03-18, 01:10:06,VALID,919.728,VALID,0.0,VALID,91.076,VALID,0.01,VALID,19.664,VALID,66.0,VALID,0.486,
2019-03-18, 01:11:06,VALID,919.722,VALID,0.0,VALID,90.292,VALID,0.01,VALID,19.702,VALID,67.0,VALID,0.163,
2019-03-18, 01:12:06,VALID,919.716,VALID,0.0,VALID,89.917,VALID,-0.008,VALID,19.686,INVALID,360.0,VALID,0.102,
2019-03-18, 01:13:06,VALID,919.698,VALID,0.0,VALID,90.02,VALID,-0.001,VALID,19.664,INVALID,360.0,VALID,0.0,
2019-03-18, 01:14:06,VALID,919.672,VALID,0.0,VALID,90.416,VALID,-0.028,VALID,19.673,INVALID,360.0,VALID,0.0,
2019-03-18, 01:15:06,VALID,919.674,VALID,0.0,VALID,90.864,VALID,-0.031,VALID,19.714,INVALID,360.0,VALID,0.0,
2019-03-18, 01:16:06,VALID,919.655,VALID,0.0,VALID,90.474,VALID,-0.036,VALID,19.755,INVALID,360.0,VALID,0.0,
2019-03-18, 01:17:06,VALID,919.66,VALID,0.0,VALID,88.454,VALID,-0.048,VALID,19.635,INVALID,360.0,VALID,0.0,
2019-03-18, 01:18:06,VALID,919.646,VALID,0.0,VALID,88.92,VALID,-0.022,VALID,19.441,INVALID,360.0,VALID,0.0,
2019-03-18, 01:19:06,VALID,919.634,VALID,0.0,VALID,89.72,VALID,-0.045,VALID,19.296,INVALID,360.0,VALID,0.0,
2019-03-18, 01:20:06,VALID,919.622,VALID,0.0,VALID,91.729,VALID,-0.032,VALID,19.286,INVALID,360.0,VALID,0.0,
2019-03-18, 01:21:06,VALID,919.599,VALID,0.0,VALID,91.518,VALID,-0.034,VALID,19.251,INVALID,360.0,VALID,0.0,
2019-03-18, 01:22:06,VALID,919.591,VALID,0.0,VALID,92.392,VALID,-0.046,VALID,19.258,INVALID,360.0,VALID,0.0,
2019-03-18, 01:23:06,VALID,919.588,VALID,0.0,VALID,93.096,VALID,-0.041,VALID,19.328,INVALID,360.0,VALID,0.0,
2019-03-18, 01:24:06,VALID,919.583,VALID,0.0,VALID,93.198,VALID,-0.028,VALID,19.422,INVALID,360.0,VALID,0.0,
2019-03-18, 01:25:06,VALID,919.588,VALID,0.0,VALID,92.326,VALID,-0.035,VALID,19.462,INVALID,360.0,VALID,0.0,
2019-03-18, 01:26:06,VALID,919.597,VALID,0.0,VALID,92.613,VALID,-0.018,VALID,19.537,INVALID,360.0,VALID,0.0,
2019-03-18, 01:27:06,VALID,919.562,VALID,0.0,VALID,92.385,VALID,-0.027,VALID,19.653,INVALID,360.0,VALID,0.0,
2019-03-18, 01:28:06,VALID,919.544,VALID,0.0,VALID,91.652,VALID,-0.014,VALID,19.698,INVALID,360.0,VALID,0.0,
2019-03-18, 01:29:06,VALID,919.532,VALID,0.0,VALID,91.461,VALID,-0.025,VALID,19.769,INVALID,360.0,VALID,0.0,
2019-03-18, 01:30:06,VALID,919.518,VALID,0.0,VALID,90.465,VALID,-0.009,VALID,19.736,INVALID,360.0,VALID,0.0,
2019-03-18, 01:31:06,VALID,919.501,VALID,0.0,VALID,91.144,VALID,-0.014,VALID,19.702,INVALID,360.0,VALID,0.0,
2019-03-18, 01:32:06,VALID,919.487,VALID,0.0,VALID,90.902,VALID,-0.019,VALID,19.704,INVALID,360.0,VALID,0.0,
2019-03-18, 01:33:06,VALID,919.454,VALID,0.0,VALID,91.108,VALID,-0.031,VALID,19.774,INVALID,360.0,VALID,0.0,
2019-03-18, 01:34:06,VALID,919.446,VALID,0.0,VALID,90.804,VALID,-0.02,VALID,19.848,INVALID,360.0,VALID,0.0,
2019-03-18, 01:35:06,VALID,919.425,VALID,0.0,VALID,90.268,VALID,-0.024,VALID,19.935,INVALID,360.0,VALID,0.0,
2019-03-18, 01:36:06,VALID,919.414,VALID,0.0,VALID,89.462,VALID,-0.041,VALID,19.963,INVALID,360.0,VALID,0.0,
2019-03-18, 01:37:06,VALID,919.415,VALID,0.0,VALID,89.223,VALID,-0.036,VALID,19.948,INVALID,360.0,VALID,0.0,
2019-03-18, 01:38:06,VALID,919.4,VALID,0.0,VALID,89.055,VALID,-0.018,VALID,19.853,VALID,51.0,VALID,0.0,
2019-03-18, 01:39:06,VALID,919.403,VALID,0.0,VALID,89.649,VALID,-0.016,VALID,19.736,VALID,51.0,VALID,0.0,
2019-03-18, 01:40:06,VALID,919.407,VALID,0.0,VALID,90.688,VALID,-0.019,VALID,19.687,INVALID,360.0,VALID,0.0,
2019-03-18, 01:41:06,VALID,919.419,VALID,0.0,VALID,91.168,VALID,-0.017,VALID,19.647,VALID,52.0,VALID,0.0,
2019-03-18, 01:42:06,VALID,919.409,VALID,0.0,VALID,91.435,VALID,-0.033,VALID,19.643,VALID,52.0,VALID,0.0,
2019-03-18, 01:43:06,VALID,919.421,VALID,0.0,VALID,91.958,VALID,-0.021,VALID,19.797,INVALID,360.0,VALID,0.0,
2019-03-18, 01:44:06,VALID,919.407,VALID,0.0,VALID,90.524,VALID,-0.011,VALID,20.104,INVALID,360.0,VALID,0.0,
2019-03-18, 01:45:06,VALID,919.382,VALID,0.0,VALID,89.131,VALID,-0.025,VALID,20.277,INVALID,360.0,VALID,0.0,
2019-03-18, 01:46:06,VALID,919.347,VALID,0.0,VALID,88.602,VALID,-0.019,VALID,20.328,INVALID,360.0,VALID,0.0,
2019-03-18, 01:47:06,VALID,919.34,VALID,0.0,VALID,87.149,VALID,-0.036,VALID,20.238,INVALID,360.0,VALID,0.0,
2019-03-18, 01:48:06,VALID,919.305,VALID,0.0,VALID,87.447,VALID,-0.026,VALID,19.995,INVALID,360.0,VALID,0.0,
2019-03-18, 01:49:06,VALID,919.271,VALID,0.0,VALID,87.937,VALID,-0.022,VALID,19.847,INVALID,360.0,VALID,0.0,
2019-03-18, 01:50:06,VALID,919.26,VALID,0.0,VALID,88.112,VALID,-0.019,VALID,19.743,INVALID,360.0,VALID,0.0,
2019-03-18, 01:51:06,VALID,919.229,VALID,0.0,VALID,87.366,VALID,-0.006,VALID,19.632,INVALID,360.0,VALID,0.0,
2019-03-18, 01:52:06,VALID,919.188,VALID,0.0,VALID,89.527,VALID,-0.025,VALID,19.547,INVALID,360.0,VALID,0.0,
2019-03-18, 01:53:06,VALID,919.15,VALID,0.0,VALID,90.319,VALID,-0.024,VALID,19.442,INVALID,360.0,VALID,0.0,
2019-03-18, 01:54:06,VALID,919.098,VALID,0.0,VALID,91.242,VALID,-0.032,VALID,19.407,INVALID,360.0,VALID,0.0,
2019-03-18, 01:55:06,VALID,919.036,VALID,0.0,VALID,90.995,VALID,-0.034,VALID,19.422,INVALID,360.0,VALID,0.0,
2019-03-18, 01:56:06,VALID,918.999,VALID,0.0,VALID,90.508,VALID,-0.036,VALID,19.496,INVALID,360.0,VALID,0.0,
2019-03-18, 01:57:06,VALID,918.953,VALID,0.0,VALID,90.727,VALID,-0.026,VALID,19.455,INVALID,360.0,VALID,0.0,
2019-03-18, 01:58:06,VALID,918.914,VALID,0.0,VALID,91.186,VALID,-0.019,VALID,19.75,INVALID,360.0,VALID,0.0,
2019-03-18, 01:59:06,VALID,918.894,VALID,0.0,VALID,88.294,VALID,-0.01,VALID,19.796,INVALID,360.0,VALID,0.0,
2019-03-18, 02:00:06,VALID,918.887,VALID,0.0,VALID,88.183,VALID,-0.022,VALID,19.485,INVALID,360.0,VALID,0.0,
2019-03-18, 02:01:06,VALID,918.868,VALID,0.0,VALID,91.495,VALID,-0.032,VALID,19.565,INVALID,360.0,VALID,0.0,
2019-03-18, 02:02:06,VALID,918.862,VALID,0.0,VALID,90.922,VALID,-0.014,VALID,19.836,INVALID,360.0,VALID,0.0,
2019-03-18, 02:03:06,VALID,918.872,VALID,0.0,VALID,88.624,VALID,-0.017,VALID,19.8,INVALID,360.0,VALID,0.0,
2019-03-18, 02:04:06,VALID,918.864,VALID,0.0,VALID,89.718,VALID,-0.017,VALID,19.639,INVALID,360.0,VALID,0.0,
2019-03-18, 02:05:06,VALID,918.853,VALID,0.0,VALID,88.92,VALID,-0.029,VALID,19.4,INVALID,360.0,VALID,0.0,
2019-03-18, 02:06:06,VALID,918.828,VALID,0.0,VALID,89.842,VALID,-0.035,VALID,19.23,INVALID,360.0,VALID,0.0,
2019-03-18, 02:07:06,VALID,918.788,VALID,0.0,VALID,90.333,VALID,-0.03,VALID,19.084,INVALID,360.0,VALID,0.0,
2019-03-18, 02:08:06,VALID,918.766,VALID,0.0,VALID,92.034,VALID,-0.03,VALID,19.014,INVALID,360.0,VALID,0.0,
2019-03-18, 02:09:06,VALID,918.735,VALID,0.0,VALID,93.078,VALID,-0.021,VALID,18.987,INVALID,360.0,VALID,0.0,
2019-03-18, 02:10:06,VALID,918.702,VALID,0.0,VALID,93.487,VALID,-0.009,VALID,18.951,INVALID,360.0,VALID,0.0,
2019-03-18, 02:11:06,VALID,918.675,VALID,0.0,VALID,93.852,VALID,-0.026,VALID,18.908,INVALID,360.0,VALID,0.0,
2019-03-18, 02:12:06,VALID,918.66,VALID,0.0,VALID,93.827,VALID,-0.034,VALID,18.834,INVALID,360.0,VALID,0.0,
2019-03-18, 02:13:06,VALID,918.665,VALID,0.0,VALID,92.911,VALID,-0.02,VALID,18.712,INVALID,360.0,VALID,0.0,
2019-03-18, 02:14:06,VALID,918.652,VALID,0.0,VALID,93.31,VALID,-0.003,VALID,18.669,INVALID,360.0,VALID,0.0,
2019-03-18, 02:15:06,VALID,918.639,VALID,0.0,VALID,94.28,VALID,-0.014,VALID,18.673,INVALID,360.0,VALID,0.0,
2019-03-18, 02:16:06,VALID,918.656,VALID,0.0,VALID,94.055,VALID,0.0,VALID,18.651,INVALID,360.0,VALID,0.0,
2019-03-18, 02:17:06,VALID,918.641,VALID,0.0,VALID,95.082,VALID,-0.003,VALID,18.751,VALID,52.0,VALID,0.0,
2019-03-18, 02:18:06,VALID,918.607,VALID,0.0,VALID,95.289,VALID,-0.023,VALID,18.792,VALID,53.0,VALID,0.0,
2019-03-18, 02:19:06,VALID,918.582,VALID,0.0,VALID,95.172,VALID,-0.031,VALID,18.855,VALID,53.0,VALID,0.0,
2019-03-18, 02:20:06,VALID,918.552,VALID,0.0,VALID,95.009,VALID,-0.025,VALID,18.927,VALID,52.0,VALID,0.0,
2019-03-18, 02:21:06,VALID,918.52,VALID,0.0,VALID,94.451,VALID,-0.002,VALID,18.945,VALID,52.0,VALID,0.0,
2019-03-18, 02:22:06,VALID,918.503,VALID,0.0,VALID,93.879,VALID,0.004,VALID,18.919,VALID,52.0,VALID,0.0,
2019-03-18, 02:23:06,VALID,918.482,VALID,0.0,VALID,94.037,VALID,0.003,VALID,18.921,INVALID,360.0,VALID,0.0,
2019-03-18, 02:24:06,VALID,918.473,VALID,0.0,VALID,94.472,VALID,0.002,VALID,18.981,INVALID,360.0,VALID,0.0,
2019-03-18, 02:25:06,VALID,918.464,VALID,0.0,VALID,94.269,VALID,-0.018,VALID,19.06,VALID,51.0,VALID,0.0,
2019-03-18, 02:26:06,VALID,918.456,VALID,0.0,VALID,92.725,VALID,-0.004,VALID,18.994,VALID,52.0,VALID,0.0,
2019-03-18, 02:27:06,VALID,918.442,VALID,0.0,VALID,92.537,VALID,-0.006,VALID,18.907,VALID,53.0,VALID,0.0,
2019-03-18, 02:28:06,VALID,918.437,VALID,0.0,VALID,92.772,VALID,-0.016,VALID,18.848,VALID,53.0,VALID,0.0,
2019-03-18, 02:29:06,VALID,918.438,VALID,0.0,VALID,93.589,VALID,-0.021,VALID,18.842,VALID,52.0,VALID,0.0,
2019-03-18, 02:30:06,VALID,918.407,VALID,0.0,VALID,93.926,VALID,-0.015,VALID,18.846,INVALID,360.0,VALID,0.0,
2019-03-18, 02:31:06,VALID,918.396,VALID,0.0,VALID,94.626,VALID,-0.006,VALID,18.927,INVALID,360.0,VALID,0.0,
2019-03-18, 02:32:06,VALID,918.395,VALID,0.0,VALID,94.482,VALID,-0.016,VALID,19.013,INVALID,360.0,VALID,0.0,
2019-03-18, 02:33:06,VALID,918.411,VALID,0.0,VALID,94.041,VALID,-0.017,VALID,19.051,INVALID,360.0,VALID,0.0,
2019-03-18, 02:34:06,VALID,918.417,VALID,0.0,VALID,94.034,VALID,-0.023,VALID,19.083,INVALID,360.0,VALID,0.0,
2019-03-18, 02:35:06,VALID,918.44,VALID,0.0,VALID,94.002,VALID,-0.032,VALID,19.116,VALID,52.0,VALID,0.0,
2019-03-18, 02:36:06,VALID,918.449,VALID,0.0,VALID,93.852,VALID,-0.035,VALID,19.118,INVALID,360.0,VALID,0.0,
2019-03-18, 02:37:06,VALID,918.462,VALID,0.0,VALID,93.123,VALID,-0.034,VALID,19.035,INVALID,360.0,VALID,0.0,
2019-03-18, 02:38:06,VALID,918.462,VALID,0.0,VALID,93.355,VALID,-0.017,VALID,18.965,INVALID,360.0,VALID,0.0,
2019-03-18, 02:39:06,VALID,918.453,VALID,0.0,VALID,93.377,VALID,-0.027,VALID,18.904,INVALID,360.0,VALID,0.0,
2019-03-18, 02:40:06,VALID,918.458,VALID,0.0,VALID,94.262,VALID,-0.018,VALID,18.883,INVALID,360.0,VALID,0.0,
2019-03-18, 02:41:06,VALID,918.445,VALID,0.0,VALID,94.1,VALID,-0.04,VALID,18.805,INVALID,360.0,VALID,0.0,
2019-03-18, 02:42:06,VALID,918.423,VALID,0.0,VALID,94.849,VALID,-0.016,VALID,18.785,INVALID,360.0,VALID,0.0,
2019-03-18, 02:43:06,VALID,918.428,VALID,0.0,VALID,94.876,VALID,-0.026,VALID,18.732,INVALID,360.0,VALID,0.0,
2019-03-18, 02:44:06,VALID,918.415,VALID,0.0,VALID,95.23,VALID,0.039,VALID,18.752,VALID,52.0,VALID,0.0,
2019-03-18, 02:45:06,VALID,918.412,VALID,0.0,VALID,95.349,VALID,0.04,VALID,18.792,INVALID,360.0,VALID,0.0,
2019-03-18, 02:46:06,VALID,918.385,VALID,0.0,VALID,95.804,VALID,0.037,VALID,18.915,INVALID,360.0,VALID,0.0,
2019-03-18, 02:47:06,VALID,918.382,VALID,0.0,VALID,95.556,VALID,0.04,VALID,19.03,INVALID,360.0,VALID,0.0,
2019-03-18, 02:48:06,VALID,918.37,VALID,0.0,VALID,94.828,VALID,0.043,VALID,19.146,INVALID,360.0,VALID,0.0,
2019-03-18, 02:49:06,VALID,918.36,VALID,0.0,VALID,94.191,VALID,0.05,VALID,19.274,INVALID,360.0,VALID,0.0,
2019-03-18, 02:50:06,VALID,918.328,VALID,0.0,VALID,93.626,VALID,0.024,VALID,19.405,INVALID,360.0,VALID,0.0,
2019-03-18, 02:51:06,VALID,918.32,VALID,0.0,VALID,92.873,VALID,0.016,VALID,19.528,INVALID,360.0,VALID,0.0,
2019-03-18, 02:52:06,VALID,918.33,VALID,0.0,VALID,92.424,VALID,0.027,VALID,19.635,INVALID,360.0,VALID,0.0,
2019-03-18, 02:53:06,VALID,918.318,VALID,0.0,VALID,91.834,VALID,0.016,VALID,19.74,VALID,51.0,VALID,0.0,
2019-03-18, 02:54:06,VALID,918.29,VALID,0.0,VALID,91.423,VALID,0.042,VALID,19.739,VALID,52.0,VALID,0.0,
2019-03-18, 02:55:06,VALID,918.285,VALID,0.0,VALID,90.828,VALID,0.025,VALID,19.568,VALID,52.0,VALID,0.0,
2019-03-18, 02:56:06,VALID,918.281,VALID,0.0,VALID,91.207,VALID,0.018,VALID,19.344,INVALID,360.0,VALID,0.0,
2019-03-18, 02:57:06,VALID,918.302,VALID,0.0,VALID,91.906,VALID,0.044,VALID,19.187,INVALID,360.0,VALID,0.0,
2019-03-18, 02:58:06,VALID,918.311,VALID,0.0,VALID,92.481,VALID,0.037,VALID,19.091,INVALID,360.0,VALID,0.0,
2019-03-18, 02:59:06,VALID,918.316,VALID,0.0,VALID,92.689,VALID,-0.019,VALID,19.022,INVALID,360.0,VALID,0.0,
2019-03-18, 03:00:06,VALID,918.332,VALID,0.0,VALID,92.819,VALID,-0.026,VALID,18.95,INVALID,360.0,VALID,0.0,
2019-03-18, 03:01:06,VALID,918.294,VALID,0.0,VALID,92.909,VALID,-0.03,VALID,18.868,INVALID,360.0,VALID,0.0,
2019-03-18, 03:02:06,VALID,918.284,VALID,0.0,VALID,93.125,VALID,-0.02,VALID,18.789,INVALID,360.0,VALID,0.0,
2019-03-18, 03:03:06,VALID,918.267,VALID,0.0,VALID,93.635,VALID,-0.016,VALID,18.732,VALID,50.0,VALID,0.0,
2019-03-18, 03:04:06,VALID,918.247,VALID,0.0,VALID,94.076,VALID,-0.025,VALID,18.681,VALID,51.0,VALID,0.0,
2019-03-18, 03:05:06,VALID,918.22,VALID,0.0,VALID,94.477,VALID,-0.035,VALID,18.652,VALID,52.0,VALID,0.0,
2019-03-18, 03:06:06,VALID,918.201,VALID,0.0,VALID,94.784,VALID,-0.029,VALID,18.628,VALID,52.0,VALID,0.0,
2019-03-18, 03:07:06,VALID,918.186,VALID,0.0,VALID,95.243,VALID,-0.037,VALID,18.663,VALID,52.0,VALID,0.0,
2019-03-18, 03:08:06,VALID,918.169,VALID,0.0,VALID,95.469,VALID,-0.034,VALID,18.692,INVALID,360.0,VALID,0.0,
2019-03-18, 03:09:06,VALID,918.149,VALID,0.0,VALID,95.081,VALID,-0.023,VALID,18.665,INVALID,360.0,VALID,0.0,
2019-03-18, 03:10:06,VALID,918.132,VALID,0.0,VALID,95.224,VALID,-0.02,VALID,18.706,INVALID,360.0,VALID,0.0,
2019-03-18, 03:11:06,VALID,918.109,VALID,0.0,VALID,95.216,VALID,-0.034,VALID,18.766,INVALID,360.0,VALID,0.0,
2019-03-18, 03:12:06,VALID,918.091,VALID,0.0,VALID,95.052,VALID,-0.016,VALID,18.88,INVALID,360.0,VALID,0.0,
2019-03-18, 03:13:06,VALID,918.074,VALID,0.0,VALID,94.542,VALID,-0.005,VALID,19.021,INVALID,360.0,VALID,0.0,
2019-03-18, 03:14:06,VALID,918.067,VALID,0.0,VALID,93.69,VALID,0.003,VALID,19.135,INVALID,360.0,VALID,0.0,
2019-03-18, 03:15:06,VALID,918.062,VALID,0.0,VALID,93.141,VALID,-0.011,VALID,19.205,INVALID,360.0,VALID,0.0,
2019-03-18, 03:16:06,VALID,918.02,VALID,0.0,VALID,92.751,VALID,-0.022,VALID,19.252,INVALID,360.0,VALID,0.0,
2019-03-18, 03:17:06,VALID,918.035,VALID,0.0,VALID,92.126,VALID,-0.028,VALID,19.206,INVALID,360.0,VALID,0.0,
2019-03-18, 03:18:06,VALID,918.017,VALID,0.0,VALID,92.651,VALID,-0.006,VALID,19.171,INVALID,360.0,VALID,0.0,
2019-03-18, 03:19:06,VALID,918.017,VALID,0.0,VALID,92.617,VALID,-0.018,VALID,19.136,INVALID,360.0,VALID,0.0,
2019-03-18, 03:20:06,VALID,918.013,VALID,0.0,VALID,92.467,VALID,-0.029,VALID,19.095,INVALID,360.0,VALID,0.0,
2019-03-18, 03:21:06,VALID,918.022,VALID,0.0,VALID,93.327,VALID,-0.001,VALID,19.078,INVALID,360.0,VALID,0.0,
2019-03-18, 03:22:06,VALID,918.004,VALID,0.0,VALID,93.977,VALID,-0.025,VALID,19.084,INVALID,360.0,VALID,0.0,
2019-03-18, 03:23:06,VALID,917.999,VALID,0.0,VALID,94.158,VALID,-0.008,VALID,19.108,INVALID,360.0,VALID,0.0,
2019-03-18, 03:24:06,VALID,917.994,VALID,0.0,VALID,94.005,VALID,-0.017,VALID,19.122,INVALID,360.0,VALID,0.0,
2019-03-18, 03:25:06,VALID,917.987,VALID,0.0,VALID,93.989,VALID,-0.016,VALID,19.147,INVALID,360.0,VALID,0.0,
2019-03-18, 03:26:06,VALID,917.985,VALID,0.0,VALID,93.671,VALID,0.004,VALID,19.167,INVALID,360.0,VALID,0.0,
2019-03-18, 03:27:06,VALID,917.973,VALID,0.0,VALID,93.624,VALID,-0.006,VALID,19.164,INVALID,360.0,VALID,0.0,
2019-03-18, 03:28:06,VALID,917.985,VALID,0.0,VALID,93.551,VALID,-0.016,VALID,19.14,INVALID,360.0,VALID,0.0,
2019-03-18, 03:29:06,VALID,917.974,VALID,0.0,VALID,93.442,VALID,-0.023,VALID,19.09,INVALID,360.0,VALID,0.0,
2019-03-18, 03:30:06,VALID,918.005,VALID,0.0,VALID,92.078,VALID,-0.031,VALID,18.92,INVALID,360.0,VALID,0.0,
2019-03-18, 03:31:06,VALID,918.02,VALID,0.0,VALID,93.412,VALID,-0.05,VALID,18.871,INVALID,360.0,VALID,0.0,
2019-03-18, 03:32:06,VALID,918.014,VALID,0.0,VALID,93.487,VALID,-0.047,VALID,18.803,INVALID,360.0,VALID,0.0,
2019-03-18, 03:33:06,VALID,918.025,VALID,0.0,VALID,93.961,VALID,-0.028,VALID,18.776,INVALID,360.0,VALID,0.0,
2019-03-18, 03:34:06,VALID,918.012,VALID,0.0,VALID,94.267,VALID,-0.021,VALID,18.767,INVALID,360.0,VALID,0.0,
2019-03-18, 03:35:06,VALID,918.02,VALID,0.0,VALID,93.888,VALID,-0.023,VALID,18.65,INVALID,360.0,VALID,0.0,
2019-03-18, 03:36:06,VALID,918.0,VALID,0.0,VALID,94.427,VALID,-0.047,VALID,18.624,INVALID,360.0,VALID,0.0,
2019-03-18, 03:37:06,VALID,917.978,VALID,0.0,VALID,95.608,VALID,-0.047,VALID,18.717,INVALID,360.0,VALID,0.0,
2019-03-18, 03:38:06,VALID,917.952,VALID,0.0,VALID,96.067,VALID,-0.032,VALID,18.844,INVALID,360.0,VALID,0.0,